Weather History for KRND - March, 2014

Change the Weather History Date:

Tuesday, March 25, 2014

  Actual Average Record
Temperature  
Mean Temperature 56 °F -  
Max Temperature 68 °F 70 °F 85 °F (2011)
Min Temperature 44 °F 52 °F 38 °F (2013)
Degree Days  
Heating Degree Days 10    
Growing Degree Days 6 (Base 50)    
Moisture  
Dew Point 44 °F    
Average Humidity 78    
Maximum Humidity 100    
Minimum Humidity 35    
Precipitation  
Precipitation 0.00 in - - ()
Sea Level Pressure  
Sea Level Pressure 30.19 in    
Wind  
Wind Speed 6 mph (North)    
Max Wind Speed 16 mph    
Max Gust Speed 23 mph    
Visibility 7 miles    
Events Fog    
Averages and records for this station are not official NWS values.
T = Trace of Precipitation, MM = Missing Value Source: NWS Daily Summary

Daily Weather History Graph

Daily Weather History Graph

Search for Another Location

Airport or City:

Trip Planner

Search our weather history database for the weather conditions in past years. The results will help you decide how hot, cold, wet, or windy it might be!

Date:

Astronomy

Mar. 25, 2014 Rise Set
Actual Time 7:30 AM CDT 7:47 PM CDT
Civil Twilight 7:07 AM CDT 8:11 PM CDT
Nautical Twilight 6:39 AM CDT 8:39 PM CDT
Astronomical Twilight 6:11 AM CDT 9:07 PM CDT
Moon 3:31 AM CDT (3/25) 2:41 PM CDT (3/25)
Length of Visible Light 13h 04m
Length of Day
12h 16m
Waning Crescent, 32% of the Moon is Illuminated
Mar 25
Waning Crescent
Mar 30
New
Apr 7
First Quarter
Apr 15
Full
Apr 22
Last Quarter

Hourly Weather History & Observations

Time (CDT) Temp. Windchill Dew Point Humidity Pressure Visibility Wind Dir Wind Speed Gust Speed Precip Events Conditions
12:03 AM 50.0 °F - 48.2 °F 94% 30.15 in 0.2 mi NNW 4.6 mph - N/A Fog Fog
12:28 AM 48.2 °F - 46.4 °F 93% 30.15 in 0.5 mi NNW 4.6 mph - N/A Fog Fog
12:48 AM 48.2 °F - 48.2 °F 100% 30.15 in 0.8 mi North 5.8 mph - N/A   Clear
12:53 AM 50.0 °F - 48.2 °F 94% 30.15 in 1.2 mi North 5.8 mph - N/A   Clear
12:58 AM 49.1 °F - 47.7 °F 95% 30.15 in 1.0 mi North 5.8 mph - N/A   Clear
1:03 AM 48.2 °F - 46.4 °F 93% 30.15 in 1.2 mi North 5.8 mph - N/A   Clear
1:13 AM 48.2 °F - 46.4 °F 93% 30.15 in 1.0 mi North 5.8 mph - N/A   Clear
1:18 AM 48.2 °F - 46.4 °F 93% 30.15 in 1.2 mi North 5.8 mph - N/A   Clear
1:23 AM 46.4 °F 43.5 °F 44.6 °F 93% 30.15 in 1.8 mi North 5.8 mph - N/A   Clear
1:28 AM 46.4 °F 42.9 °F 44.6 °F 93% 30.14 in 2.0 mi North 6.9 mph - N/A   Clear
1:33 AM 46.4 °F 43.5 °F 46.4 °F 100% 30.14 in 5.0 mi North 5.8 mph - N/A   Clear
1:38 AM 48.2 °F - 46.4 °F 93% 30.14 in 6.0 mi North 4.6 mph - N/A   Clear
1:58 AM 47.5 °F - 46.0 °F 95% 30.14 in 6.0 mi NNW 5.8 mph - N/A   Clear
2:18 AM 46.4 °F 43.5 °F 44.6 °F 93% 30.14 in 7.0 mi NNW 5.8 mph - N/A   Clear
2:53 AM 46.4 °F 43.5 °F 44.6 °F 93% 30.15 in 10.0 mi WNW 5.8 mph - N/A   Clear
2:58 AM 46.8 °F - 44.8 °F 93% 30.15 in 10.0 mi WNW 5.8 mph - N/A   Clear
3:28 AM 46.4 °F 42.9 °F 44.6 °F 93% 30.14 in 9.0 mi NNW 6.9 mph - N/A   Scattered Clouds
3:58 AM 47.3 °F - 45.3 °F 93% 30.15 in 7.0 mi Calm Calm - N/A   Clear
4:08 AM 46.4 °F - 44.6 °F 93% 30.15 in 10.0 mi Calm Calm - N/A   Clear
4:18 AM 46.4 °F 44.3 °F 44.6 °F 93% 30.14 in 10.0 mi NNW 4.6 mph - N/A   Clear
4:23 AM 46.4 °F 44.3 °F 42.8 °F 87% 30.15 in 10.0 mi NNW 4.6 mph - N/A   Clear
4:38 AM 46.4 °F 43.5 °F 44.6 °F 93% 30.15 in 8.0 mi NNW 5.8 mph - N/A   Clear
4:43 AM 46.4 °F 43.5 °F 44.6 °F 93% 30.14 in 6.0 mi NNW 5.8 mph - N/A   Clear
4:48 AM 46.4 °F 42.9 °F 44.6 °F 93% 30.14 in 5.0 mi NNW 6.9 mph - N/A   Clear
4:53 AM 46.4 °F 42.9 °F 44.6 °F 93% 30.15 in 4.0 mi NNW 6.9 mph - N/A   Clear
4:58 AM 46.4 °F 43.5 °F 44.6 °F 93% 30.15 in 5.0 mi NNW 5.8 mph - N/A   Clear
5:03 AM 46.4 °F 42.9 °F 44.6 °F 93% 30.15 in 6.0 mi NNW 6.9 mph - N/A   Clear
5:48 AM 44.6 °F 41.4 °F 42.8 °F 93% 30.17 in 7.0 mi NNW 5.8 mph - N/A   Partly Cloudy
5:58 AM 45.5 °F 42.5 °F 43.5 °F 93% 30.19 in 9.0 mi NNW 5.8 mph - N/A   Partly Cloudy
6:03 AM 46.4 °F 42.9 °F 44.6 °F 93% 30.18 in 10.0 mi NNW 6.9 mph - N/A   Partly Cloudy
6:58 AM 46.2 °F 42.7 °F 44.1 °F 92% 30.21 in 9.0 mi NNW 6.9 mph - N/A   Clear
7:18 AM 46.4 °F 42.9 °F 44.6 °F 93% 30.22 in 7.0 mi NNW 6.9 mph - N/A   Clear
7:28 AM 46.4 °F 43.5 °F 44.6 °F 93% 30.23 in 8.0 mi North 5.8 mph - N/A   Clear
7:58 AM 47.3 °F - 44.2 °F 89% 30.25 in 10.0 mi North 4.6 mph - N/A   Clear
8:58 AM 50.4 °F - 46.8 °F 87% 30.29 in 10.0 mi North 5.8 mph - N/A   Clear
9:58 AM 55.9 °F - 45.9 °F 69% 30.29 in 10.0 mi NNE 10.4 mph - N/A   Clear
10:58 AM 59.7 °F - 42.4 °F 53% 30.31 in 10.0 mi NNE 12.7 mph - N/A   Partly Cloudy
11:58 AM 61.7 °F - 42.6 °F 50% 30.32 in 10.0 mi NE 13.8 mph - N/A   Partly Cloudy
12:58 PM 64.8 °F - 41.5 °F 43% 30.30 in 10.0 mi NNE 16.1 mph - N/A   Partly Cloudy
1:58 PM 66.6 °F - 40.6 °F 39% 30.28 in 10.0 mi NE 15.0 mph 19.6 mph N/A   Clear
2:16 PM 66.2 °F - 39.2 °F 37% 30.28 in 10.0 mi ENE 15.0 mph 21.9 mph N/A   Partly Cloudy
2:58 PM 65.7 °F - 39.4 °F 38% 30.26 in 10.0 mi NE 12.7 mph 21.9 mph N/A   Scattered Clouds
3:58 PM 67.3 °F - 38.3 °F 35% 30.23 in 10.0 mi NE 16.1 mph 23.0 mph N/A   Scattered Clouds
4:58 PM 65.8 °F - 38.3 °F 36% 30.22 in 10.0 mi ENE 11.5 mph - N/A   Partly Cloudy
5:58 PM 65.8 °F - 39.2 °F 38% 30.21 in 10.0 mi ENE 6.9 mph - N/A   Scattered Clouds
6:58 PM 64.6 °F - 38.8 °F 39% 30.21 in 10.0 mi ENE 9.2 mph - N/A   Partly Cloudy
7:58 PM 61.9 °F - 38.7 °F 42% 30.19 in 10.0 mi East 8.1 mph - N/A   Mostly Cloudy
8:58 PM 59.4 °F - 39.7 °F 48% 30.19 in 10.0 mi East 6.9 mph - N/A   Partly Cloudy
9:58 PM 57.9 °F - 41.2 °F 54% 30.20 in 10.0 mi East 6.9 mph - N/A   Clear
10:58 PM 57.0 °F - 42.3 °F 58% 30.21 in 10.0 mi ENE 5.8 mph - N/A   Clear
11:58 PM 56.1 °F - 43.7 °F 63% 30.21 in 10.0 mi East 4.6 mph - N/A   Clear